Estación de C. Llollinco

Ultimos registro cada 15 minutos 37
Estación Fecha / Hora Temperatura Humedad Lluvia Velocidad Dirección Radiación Presion
37 C. Llollinco 10-05-2026 09:00 2,2 98,5 0 0 0 144 0
36 C. Llollinco 10-05-2026 08:45 1 98,4 0 0 36 109 0
35 C. Llollinco 10-05-2026 08:30 0,2 97,8 0 0 0 69 0
34 C. Llollinco 10-05-2026 08:15 -0,2 97,8 0 0 0 15 0
33 C. Llollinco 10-05-2026 08:00 -0,4 97,7 0 0 0 7 0
32 C. Llollinco 10-05-2026 07:45 -0,2 97,3 0 0 0 2 0
31 C. Llollinco 10-05-2026 07:30 -0,2 97,5 0 0 0 0 0
30 C. Llollinco 10-05-2026 07:15 -0,1 97,5 0 0 0 0 0
29 C. Llollinco 10-05-2026 07:00 0 97,7 0 0 0 0 0
28 C. Llollinco 10-05-2026 06:45 0,1 97,6 0 0 209 0 0
27 C. Llollinco 10-05-2026 06:30 0,3 97,2 0 0 0 0 0
26 C. Llollinco 10-05-2026 06:15 0,4 97,5 0 0 0 0 0
25 C. Llollinco 10-05-2026 06:00 0,6 97,2 0 0 0 0 0
24 C. Llollinco 10-05-2026 05:45 0,5 97,4 0 0 349 0 0
23 C. Llollinco 10-05-2026 05:30 0,5 97,3 0 0 0 0 0
22 C. Llollinco 10-05-2026 05:15 0,8 97,3 0 0,3 184 0 0
21 C. Llollinco 10-05-2026 05:00 0,7 97,2 0 0,3 277 0 0
20 C. Llollinco 10-05-2026 04:45 0,8 97,6 0 0 63 0 0
19 C. Llollinco 10-05-2026 04:30 0,9 97,2 0 0 0 0 0
18 C. Llollinco 10-05-2026 04:15 0,9 97 0 0 0 0 0
17 C. Llollinco 10-05-2026 04:00 1,1 97,1 0 0 0 0 0
16 C. Llollinco 10-05-2026 03:45 1,3 97 0 0 0 0 0
15 C. Llollinco 10-05-2026 03:30 1,3 97 0 0 0 0 0
14 C. Llollinco 10-05-2026 03:15 1,2 96,9 0 0 0 0 0
13 C. Llollinco 10-05-2026 03:00 1,4 96,5 0 0 0 0 0
12 C. Llollinco 10-05-2026 02:45 1,5 96,8 0 0 0 0 0
11 C. Llollinco 10-05-2026 02:30 1,6 96,7 0 0 0 0 0
10 C. Llollinco 10-05-2026 02:15 1,8 96,6 0 0 0 0 0
9 C. Llollinco 10-05-2026 02:00 1,8 96,8 0 0 0 0 0
8 C. Llollinco 10-05-2026 01:45 1,7 96,7 0 0 0 0 0
7 C. Llollinco 10-05-2026 01:30 1,9 96,4 0 0 0 0 0
6 C. Llollinco 10-05-2026 01:15 1,9 96,6 0 0,1 28 0 0
5 C. Llollinco 10-05-2026 01:00 1,8 96,5 0 0 0 0 0
4 C. Llollinco 10-05-2026 00:45 1,9 96,2 0 0,1 100 0 0
3 C. Llollinco 10-05-2026 00:30 1,9 96,1 0 0 0 0 0
2 C. Llollinco 10-05-2026 00:15 2 96 0 0 0 0 0
1 C. Llollinco 10-05-2026 00:00 1,9 96 0 0,1 208 0 0